Theta_e
325 321 319 318 306 302 295 296 300 301 300 303 304 303 302 304 303 300 323 329 332 344 349 352 352 353 353 353 352 352 353 352 350 350 349 348 349 348 346 345 345 343 341 339 338 335 334 334 335
317 319 318 313 299 293 293 299 299 301 303 304 303 303 302 302 313 317 319 330 333 343 347 349 350 352 351 351 352 352 352 351 348 347 346 350 349 347 345 343 342 342 340 339 337 333 331 330 330
320 318 310 305 299 294 294 299 299 302 302 302 301 305 305 306 315 318 322 330 334 339 346 347 348 350 351 351 350 350 350 350 348 346 347 348 348 346 344 341 338 337 337 336 335 332 329 328 329
315 314 309 298 297 298 299 300 302 302 303 304 303 301 307 316 316 323 328 329 334 337 346 345 348 350 350 350 350 349 348 349 347 346 345 347 347 346 343 340 338 337 336 335 333 329 326 326 327
313 310 301 297 296 298 301 303 301 301 299 301 300 301 303 310 321 322 326 329 333 334 346 346 347 349 349 349 349 349 349 348 348 348 346 346 346 344 342 340 338 337 336 334 331 328 324 324 324
308 307 297 293 295 299 301 302 301 300 300 299 299 302 301 310 317 320 326 329 335 337 342 346 341 341 343 348 348 348 348 347 346 346 346 345 345 345 342 339 338 337 336 334 332 328 323 321 320
305 302 297 296 296 296 300 302 297 299 299 300 302 299 301 303 308 315 316 320 322 326 336 339 343 341 335 338 341 344 346 346 346 345 345 344 344 343 342 340 339 337 335 334 331 328 324 318 316
305 301 295 293 296 296 301 301 302 301 299 303 303 298 297 300 305 312 312 312 312 314 317 319 333 339 340 342 334 338 342 343 343 342 340 338 338 336 336 334 338 337 335 333 331 328 324 318 313
306 296 294 295 296 298 302 299 301 302 301 301 302 300 300 303 307 308 308 308 308 309 309 311 313 321 336 338 336 332 337 338 338 337 334 332 338 334 332 332 335 337 336 333 330 327 323 317 314
301 296 297 300 300 299 301 300 302 298 300 297 299 301 303 303 304 304 303 303 303 304 306 309 310 311 316 332 337 339 342 340 339 339 337 338 338 337 333 327 330 332 332 333 330 326 324 321 313
301 296 298 300 303 303 302 299 301 298 297 299 300 300 302 302 301 302 301 302 301 303 307 310 311 312 312 325 335 337 337 337 338 336 337 336 335 331 331 326 326 328 326 328 325 322 320 319 315
297 300 300 304 304 302 300 302 299 299 297 302 301 302 301 300 300 299 300 301 302 304 308 312 315 316 312 314 335 335 333 330 331 331 332 334 333 331 331 328 328 328 328 328 325 322 319 318 316
299 300 302 303 302 301 303 300 299 298 300 300 301 302 299 299 299 300 301 302 304 305 309 309 314 317 315 316 331 327 326 325 324 324 326 329 329 326 326 326 326 324 326 325 322 320 319 315 315
301 302 301 302 302 301 299 299 299 299 299 298 300 298 297 297 297 299 299 300 303 307 306 310 312 315 316 317 318 318 318 319 317 317 318 321 322 321 320 319 318 318 319 318 316 315 314 313 311
301 296 299 300 300 298 299 296 296 300 299 298 297 296 296 296 297 296 297 299 302 305 307 308 309 311 309 309 312 312 313 314 313 314 314 315 317 316 315 313 312 313 314 313 313 313 312 311 310
296 295 291 299 300 298 296 292 299 299 297 296 296 295 295 295 296 296 297 300 304 304 305 306 307 305 304 304 306 308 309 310 309 309 310 312 312 311 311 312 311 312 312 312 310 308 308 307 306
295 289 292 295 299 297 295 293 297 298 298 296 295 295 296 294 295 295 297 300 303 303 305 304 304 302 301 301 301 302 304 305 305 305 304 305 308 309 307 306 306 306 305 304 306 306 304 301 300
291 291 294 293 296 296 293 293 296 297 297 296 296 295 294 294 294 295 296 300 303 304 304 303 302 301 300 300 300 301 299 299 298 297 298 300 301 302 301 301 300 300 299 298 298 302 302 298 297
296 293 292 294 296 294 294 294 297 296 296 295 296 295 294 294 294 295 297 299 302 304 304 303 302 302 303 302 301 298 295 293 293 294 294 294 295 296 295 294 295 293 292 291 292 296 296 295 294
295 293 292 296 296 293 293 293 297 297 296 297 297 295 294 292 291 294 295 298 300 302 303 304 304 303 304 301 298 294 291 290 290 290 290 291 291 291 291 290 289 289 289 288 288 288 290 289 290
294 292 291 292 293 292 290 289 293 298 298 297 298 297 296 292 291 292 294 295 296 297 300 301 300 298 296 294 293 292 291 289 287 287 287 288 289 289 289 289 288 288 287 286 286 286 286 285 286
291 296 295 294 290 285 291 283 292 296 297 296 297 295 293 292 292 292 293 293 294 293 294 295 296 295 294 293 292 291 289 286 286 285 286 287 287 287 288 287 287 286 286 285 285 286 285 284 282
293 296 293 292 289 288 288 286 290 296 295 296 295 294 293 292 292 291 291 292 290 291 291 291 291 291 292 292 291 289 286 286 286 285 285 285 285 286 286 286 285 285 285 284 284 283 283 283 282
296 293 292 290 289 282 289 288 288 293 295 296 295 294 293 292 291 290 290 289 288 288 288 288 288 289 290 289 289 287 286 285 285 284 283 283 283 284 284 285 284 283 283 283 283 283 282 282 282
293 290 283 280 279 280 288 287 291 295 295 296 295 294 293 292 290 288 286 286 286 286 287 287 286 286 287 287 287 287 286 285 284 284 283 282 282 282 282 282 282 282 282 282 282 281 280 281 280
290 291 284 278 279 281 282 281 289 293 293 294 297 295 294 291 290 287 286 286 286 286 285 285 285 285 286 286 286 286 286 285 284 284 284 283 282 282 282 281 281 281 281 281 281 280 280 280 279
290 287 295 285 278 278 285 287 292 290 289 290 292 292 292 291 289 287 287 286 285 285 285 285 284 285 285 285 284 284 284 284 283 284 283 282 282 283 281 281 280 280 280 280 280 279 278 278 279
291 294 285 284 274 275 283 286 287 287 288 289 290 291 291 291 289 288 287 286 286 285 285 285 285 284 284 284 284 284 284 284 283 283 282 281 280 281 280 280 280 279 279 278 278 278 278 277 277
287 286 288 289 285 279 278 284 292 293 292 289 291 292 291 290 289 288 287 287 286 286 285 285 284 284 284 284 284 283 283 283 283 282 281 281 280 280 279 279 279 278 278 277 277 277 277 276 276
292 290 290 283 281 284 282 286 292 292 293 292 292 292 291 291 290 289 288 287 285 285 285 284 284 284 283 284 283 283 283 282 281 281 281 280 279 279 278 278 278 278 277 277 276 276 276 276 276
Wind_Speed
11 6 4 3 2 3 5 3 5 6 8 7 3 9 11 12 7 6 5 7 4 13 12 9 11 11 11 11 10 9 9 10 11 11 11 9 13 15 15 13 11 15 15 15 15 16 15 14 13
7 9 2 4 2 5 4 6 9 8 8 6 2 4 12 9 8 8 5 7 3 10 11 10 11 12 12 12 9 8 8 9 10 9 9 10 12 14 13 14 16 16 14 14 15 15 15 15 14
8 5 2 2 2 5 6 7 9 6 3 1 4 8 7 6 10 5 4 4 4 7 10 12 9 11 12 13 9 7 8 8 8 8 8 9 11 12 13 14 15 14 15 14 14 14 14 14 13
4 2 4 1 8 7 9 8 10 8 6 3 6 9 7 7 5 5 6 3 9 5 12 10 10 9 11 12 11 7 7 7 8 7 7 7 10 11 12 13 14 15 15 14 14 14 14 14 13
3 3 3 0 7 3 8 8 2 6 4 5 1 6 7 5 8 8 7 6 8 5 11 7 8 5 10 12 12 10 8 8 7 7 7 7 8 11 13 13 14 14 14 14 14 14 13 13 13
3 1 3 4 7 4 6 5 4 5 9 3 5 8 4 6 8 6 8 9 8 7 6 8 5 4 5 1 7 10 10 8 7 5 7 7 9 11 12 13 13 13 14 13 13 13 13 12 12
2 2 6 6 8 5 6 3 2 5 6 5 4 5 6 7 4 6 8 8 9 9 7 5 4 4 3 1 2 3 8 8 6 4 6 7 9 10 11 10 11 12 12 12 11 11 11 11 12
3 1 4 3 6 5 7 5 5 6 5 5 6 3 6 3 1 5 7 8 8 7 8 7 6 5 5 4 7 5 5 7 6 6 6 7 8 10 9 9 8 9 9 10 10 10 10 10 10
2 2 3 2 1 6 7 5 1 1 6 6 6 5 5 3 6 6 6 6 6 6 7 6 5 5 1 4 4 4 4 6 5 4 5 5 4 6 7 8 8 8 9 9 9 8 6 6 7
1 2 7 7 7 5 8 6 9 4 7 4 7 7 5 6 5 7 7 7 7 6 5 6 5 5 5 2 2 2 4 5 4 4 6 4 2 4 6 6 8 7 9 9 9 6 7 4 3
1 2 5 5 8 9 6 1 2 3 5 6 9 9 6 8 8 8 7 6 5 4 6 7 5 3 3 2 1 1 3 3 5 9 5 5 5 4 4 3 3 2 6 3 4 4 4 6 4
3 2 5 4 3 3 4 2 2 5 4 8 10 9 7 9 8 7 6 6 5 6 6 8 8 6 0 3 3 5 6 6 6 7 9 5 3 4 4 3 3 3 2 4 3 3 4 6 5
4 3 2 4 3 3 5 3 5 5 9 9 7 8 8 7 6 6 5 7 6 6 8 8 7 8 1 1 7 7 7 7 7 6 7 5 5 5 5 6 5 5 5 5 4 4 4 5 6
5 3 4 6 5 3 2 5 4 4 11 9 7 8 7 7 4 6 6 6 5 7 6 5 7 6 8 7 9 7 7 7 8 7 7 8 7 6 6 7 6 6 6 4 5 4 4 3 4
1 4 7 8 6 2 4 7 10 9 9 10 8 7 7 6 6 6 4 6 4 7 5 5 6 7 9 9 9 8 7 7 7 7 9 10 8 9 7 6 6 4 4 5 5 4 3 3 3
3 3 3 3 11 4 4 7 3 11 10 9 9 8 7 5 6 6 5 5 6 7 6 6 7 8 9 8 7 6 6 7 7 8 6 8 9 7 6 5 5 3 3 4 4 3 3 3 2
5 5 8 4 8 6 8 5 5 7 8 9 9 9 8 7 6 6 5 5 7 7 6 6 7 8 9 9 8 8 8 8 7 7 5 7 7 7 6 6 6 6 5 5 4 4 5 5 5
6 5 6 6 8 6 7 11 6 9 9 10 10 9 8 8 6 6 5 4 7 7 6 7 6 8 9 7 7 7 8 8 7 6 6 7 7 8 6 6 8 6 6 6 5 6 5 5 5
9 7 8 4 3 5 9 10 10 13 9 10 10 10 9 9 8 7 6 6 6 8 7 8 8 7 5 4 6 6 6 6 6 6 8 8 7 9 8 7 8 7 8 7 8 4 6 8 10
9 9 10 8 7 3 7 11 9 13 15 18 15 11 11 9 8 7 7 7 6 6 7 7 9 8 4 4 4 5 4 5 6 5 7 9 10 8 9 8 7 7 7 8 8 8 4 4 8
7 8 7 8 4 4 6 9 14 11 14 14 10 10 10 15 11 9 8 7 7 6 6 6 6 7 7 8 8 8 6 5 5 5 5 7 9 9 8 8 7 7 5 6 6 6 7 5 5
8 7 11 6 3 5 7 7 7 9 14 17 15 10 11 13 10 10 9 9 8 7 7 7 7 7 7 8 8 7 6 7 4 4 5 6 7 8 7 8 7 7 5 8 6 6 6 5 5
4 5 0 3 6 5 5 9 7 13 17 17 16 10 10 12 14 13 10 9 9 7 7 7 7 7 7 8 9 9 10 6 5 5 7 7 7 8 7 7 7 8 6 6 7 7 7 5 4
9 5 2 1 1 7 13 14 6 13 16 9 12 13 12 13 12 11 8 9 7 7 7 7 7 6 7 8 9 10 11 9 7 5 5 4 4 5 6 7 7 6 6 6 5 6 7 5 5
5 6 2 3 1 9 1 11 15 5 3 6 18 17 15 15 14 13 12 10 9 8 8 7 7 7 7 8 8 9 9 9 9 7 5 6 4 4 6 6 6 5 5 6 6 6 6 5 4
9 10 7 8 6 5 3 9 8 0 6 4 13 16 16 16 15 14 13 11 11 9 8 8 9 8 8 8 9 8 9 5 5 6 5 5 4 5 6 6 6 6 6 5 5 4 4 4 4
6 10 10 5 1 2 7 8 8 5 3 1 10 15 17 17 15 15 13 10 10 10 9 9 9 7 8 8 7 7 7 8 7 8 7 5 6 5 6 6 6 6 6 6 6 5 4 4 4
4 5 5 2 3 7 6 11 11 6 12 8 12 17 17 17 16 15 14 12 10 8 7 8 8 9 8 8 7 7 7 8 8 7 7 7 6 6 6 6 6 6 5 5 5 4 4 4 3
5 4 5 5 5 5 5 9 4 14 15 19 15 17 18 19 18 16 14 13 12 10 9 9 10 10 9 8 7 8 7 7 7 7 7 7 7 7 7 6 6 4 4 4 4 3 3 2 2
5 8 10 6 6 8 2 22 4 6 10 14 16 16 17 18 17 16 15 14 13 13 11 10 9 10 8 7 7 8 8 8 8 7 7 7 7 7 7 6 5 4 3 3 2 1 1 1 2
Wind_Direction
297 270 303 316 336 123 114 61 118 118 86 65 30 76 80 50 33 103 88 59 2 124 121 147 138 132 124 119 116 114 114 110 108 102 98 98 104 97 88 81 85 79 66 57 50 48 48 45 41
310 312 251 276 258 117 80 123 80 73 88 110 108 133 86 66 63 94 74 57 346 123 135 137 144 144 138 126 120 121 114 111 108 103 97 95 109 96 91 83 68 64 64 61 53 49 45 40 38
269 288 315 262 334 53 120 102 102 102 109 54 109 36 45 10 36 73 91 29 141 114 143 132 155 153 140 129 125 124 120 116 111 104 99 107 112 105 98 88 78 73 69 63 58 53 51 48 47
315 211 277 311 82 4 111 101 115 116 103 326 68 85 83 29 66 73 51 33 95 128 95 129 131 151 144 135 129 137 132 126 122 117 114 114 118 111 98 90 83 76 74 68 60 54 53 51 47
235 271 266 335 60 71 49 87 124 90 101 128 8 80 83 56 62 39 83 42 103 93 112 123 135 147 152 153 149 155 154 146 139 142 133 123 114 103 102 91 84 78 75 68 61 57 53 53 53
306 228 292 168 119 96 104 115 155 111 111 134 110 103 87 50 52 50 46 40 66 69 75 121 124 73 44 7 165 161 161 158 157 156 140 133 121 116 112 107 103 94 87 77 68 60 54 51 49
278 330 285 334 124 138 128 125 198 143 132 50 348 84 113 83 4 79 80 75 45 25 43 60 118 177 161 15 10 147 162 158 159 151 137 127 119 112 110 110 111 109 107 100 96 84 75 66 53
300 325 314 291 136 172 112 170 42 20 62 117 359 81 145 115 149 119 88 91 86 58 44 22 15 41 351 189 184 126 154 159 157 145 139 145 130 125 121 113 116 119 114 99 82 71 68 71 63
275 310 253 240 255 122 131 143 11 36 115 58 32 62 102 137 175 149 131 95 82 64 61 46 17 0 185 336 95 146 144 158 165 167 164 147 166 151 141 109 123 126 110 92 80 69 64 89 81
280 302 360 360 38 88 155 207 149 181 130 112 102 98 105 81 69 84 52 58 49 39 56 40 16 12 353 325 357 294 185 174 193 199 167 196 143 125 116 116 109 118 97 93 78 41 2 349 60
9 310 357 39 33 357 114 260 43 220 203 40 163 125 108 89 60 62 64 65 45 20 39 30 6 347 303 196 155 59 39 32 57 40 43 78 91 111 98 93 80 61 80 83 83 34 26 28 38
296 66 5 50 44 345 125 70 173 237 101 74 69 104 110 84 74 60 58 52 35 27 33 34 3 339 295 312 150 76 68 68 62 48 30 52 57 62 84 83 67 49 45 70 83 76 36 9 22
228 126 69 82 119 289 46 272 236 132 121 98 99 104 100 90 102 94 74 64 51 34 40 22 358 334 134 328 70 71 71 72 64 58 53 76 83 73 72 65 61 48 33 37 60 48 34 29 360
11 356 245 159 204 189 227 256 132 161 134 129 149 119 102 105 96 100 61 70 50 63 45 26 15 27 57 69 78 80 73 73 70 59 50 51 65 67 63 59 48 43 39 37 44 41 23 20 11
348 292 223 220 206 264 154 275 231 151 147 150 162 129 126 129 113 99 86 87 52 80 64 49 46 53 62 67 75 78 80 86 84 79 64 59 69 71 74 75 70 60 53 63 59 46 47 38 12
237 196 240 309 161 157 169 267 262 134 154 168 168 155 154 139 123 100 85 93 83 89 77 68 74 72 66 70 74 83 80 79 77 65 65 68 70 77 71 75 84 98 74 67 67 41 47 42 17
193 256 217 161 174 128 188 276 159 153 179 180 174 170 174 146 124 109 111 103 98 105 107 95 90 85 83 72 69 64 69 71 67 63 52 46 54 64 70 64 50 46 46 32 28 46 57 25 353
217 212 242 244 202 185 192 256 184 187 198 192 184 177 173 169 152 121 119 119 112 110 107 105 96 97 98 96 91 77 67 60 50 48 48 44 47 54 56 63 57 47 44 29 16 40 43 26 334
291 304 297 287 141 190 223 244 230 191 202 217 193 177 178 170 135 145 136 143 132 124 122 123 123 135 130 128 106 87 86 72 60 55 47 46 49 52 52 52 62 51 58 42 34 30 46 22 358
238 261 265 286 127 190 267 265 262 182 205 204 204 180 172 138 148 158 162 156 150 130 134 145 154 166 125 80 78 88 96 76 75 60 57 53 50 53 67 60 51 53 55 44 37 38 36 29 27
244 237 250 243 152 223 295 272 254 250 212 204 213 177 167 157 161 166 159 156 133 133 128 112 99 93 93 97 96 98 90 77 61 45 53 45 49 48 53 58 62 59 51 52 35 35 39 41 8
248 220 230 257 312 240 146 279 262 268 240 197 200 176 157 156 153 157 166 152 144 131 115 111 114 117 122 128 129 127 110 106 85 91 78 67 50 49 50 54 55 61 51 49 39 32 41 46 34
215 30 95 234 248 302 266 272 250 222 253 216 191 172 161 159 154 163 164 148 132 139 138 133 125 127 128 121 112 113 113 114 117 108 102 88 70 56 53 56 56 56 53 53 50 35 29 34 57
128 90 90 34 200 255 227 227 223 236 227 217 179 179 165 156 153 152 136 127 131 130 135 136 130 124 117 114 117 120 125 129 123 121 105 99 91 83 68 64 59 59 60 62 58 59 49 44 49
170 134 255 298 240 241 287 226 245 253 315 201 181 177 168 161 158 151 151 156 151 160 154 143 139 133 123 111 112 122 127 124 126 131 122 118 95 76 72 74 69 62 62 59 66 62 55 46 52
188 181 161 232 212 263 332 238 245 330 37 14 161 165 164 164 166 161 166 164 161 157 153 148 149 139 125 118 120 122 122 128 123 124 118 106 111 108 99 88 84 80 68 62 74 67 61 52 50
182 213 227 355 53 337 217 261 283 165 157 41 149 161 171 170 169 165 167 166 162 163 166 159 144 136 131 130 127 127 121 114 120 112 108 116 119 114 112 113 103 89 79 66 73 69 59 42 46
196 163 105 195 232 247 248 248 242 225 219 190 187 180 174 171 170 171 174 170 162 160 155 149 148 149 146 140 138 134 126 122 125 118 126 130 129 126 123 110 105 89 81 66 73 69 54 46 22
137 215 220 166 186 220 279 257 300 200 196 194 193 184 181 178 179 177 176 170 161 159 162 161 159 154 151 148 144 137 137 133 131 134 136 143 135 134 126 123 112 112 104 88 79 91 85 44 355
223 183 192 166 226 236 210 255 12 6 185 175 185 183 180 183 182 179 173 167 168 169 168 171 161 157 158 148 142 144 143 145 144 146 148 144 147 136 132 122 128 135 129 119 121 123 93 303 321